Stündliche Wetter Kysivka

Heute, 18 Mai, Dienstag

Zeit Temperatur Niederschläge Wind Luftdruck Luftfeuchtigkeit
00:00 +16°C° 0.1 mm 2 m/S 739 mmHg 94%
01:00 +16°C° 0.1 mm 2 m/S 739 mmHg 94%
02:00 +16°C° 0 mm 2 m/S 739 mmHg 94%
03:00 +16°C° 0.6 mm 2 m/S 739 mmHg 95%
04:00 +16°C° 0.6 mm 2 m/S 739 mmHg 95%
05:00 +16°C° 0.6 mm 1 m/S 739 mmHg 96%
06:00 +16°C° 0.9 mm 2 m/S 739 mmHg 95%
07:00 +16°C° 0.9 mm 3 m/S 739 mmHg 93%
08:00 +17°C° 0.9 mm 3 m/S 739 mmHg 92%
09:00 +18°C° 0.3 mm 4 m/S 739 mmHg 85%
10:00 +19°C° 0.3 mm 4 m/S 739 mmHg 77%
11:00 +21°C° 0.3 mm 5 m/S 739 mmHg 69%
12:00 +21°C° 0.4 mm 5 m/S 739 mmHg 69%
13:00 +20°C° 0.4 mm 5 m/S 738 mmHg 69%
14:00 +20°C° 0.4 mm 5 m/S 738 mmHg 69%
15:00 +20°C° 0.5 mm 5 m/S 738 mmHg 71%
16:00 +20°C° 0.5 mm 6 m/S 738 mmHg 73%
17:00 +19°C° 0.5 mm 6 m/S 738 mmHg 76%
18:00 +17°C° 0.3 mm 5 m/S 738 mmHg 80%
19:00 +17°C° 0.3 mm 4 m/S 738 mmHg 85%
20:00 +14°C° 0.3 mm 3 m/S 738 mmHg 90%
21:00 +14°C° 0.1 mm 4 m/S 738 mmHg 92%
22:00 +14°C° 0.1 mm 4 m/S 738 mmHg 93%
23:00 +14°C° 0.1 mm 4 m/S 738 mmHg 94%

Morgen, 19 Mai, Mittwoch

Zeit Temperatur Niederschläge Wind Luftdruck Luftfeuchtigkeit
00:00 +13°C° 0 mm 4 m/S 738 mmHg 95%
01:00 +13°C° 0 mm 4 m/S 738 mmHg 96%
02:00 +12°C° 0 mm 4 m/S 738 mmHg 97%
03:00 +12°C° 0 mm 4 m/S 738 mmHg 96%
04:00 +12°C° 0 mm 4 m/S 738 mmHg 95%
05:00 +12°C° 0 mm 4 m/S 739 mmHg 94%
06:00 +13°C° 0 mm 5 m/S 739 mmHg 89%
07:00 +14°C° 0 mm 5 m/S 739 mmHg 85%
08:00 +15°C° 0 mm 5 m/S 739 mmHg 80%
09:00 +16°C° 0.2 mm 5 m/S 739 mmHg 76%
10:00 +17°C° 0.2 mm 5 m/S 739 mmHg 71%
11:00 +17°C° 0.2 mm 5 m/S 739 mmHg 67%
12:00 +19°C° 0.4 mm 5 m/S 739 mmHg 65%
13:00 +19°C° 0.4 mm 5 m/S 739 mmHg 62%
14:00 +20°C° 0.4 mm 5 m/S 739 mmHg 60%
15:00 +19°C° 0.5 mm 4 m/S 738 mmHg 64%
16:00 +18°C° 0.5 mm 4 m/S 738 mmHg 68%
17:00 +18°C° 0.5 mm 3 m/S 738 mmHg 72%
18:00 +17°C° 0.1 mm 3 m/S 738 mmHg 77%
19:00 +14°C° 0.1 mm 3 m/S 738 mmHg 82%
20:00 +13°C° 0.1 mm 3 m/S 739 mmHg 87%
21:00 +12°C° 0 mm 3 m/S 738 mmHg 90%
22:00 +12°C° 0 mm 3 m/S 738 mmHg 93%
23:00 +11°C° 0 mm 3 m/S 738 mmHg 96%

übermorgen, 20 Mai, Donnerstag

Zeit Temperatur Niederschläge Wind Luftdruck Luftfeuchtigkeit
00:00 +12°C° 0 mm 2 m/S 738 mmHg 96%
01:00 +12°C° 0 mm 2 m/S 738 mmHg 97%
02:00 +10°C° 0 mm 2 m/S 738 mmHg 97%
03:00 +10°C° 0 mm 3 m/S 739 mmHg 97%
04:00 +11°C° 0 mm 3 m/S 739 mmHg 96%
05:00 +11°C° 0 mm 4 m/S 739 mmHg 96%
06:00 +11°C° 0 mm 4 m/S 740 mmHg 94%
07:00 +12°C° 0 mm 4 m/S 740 mmHg 91%
08:00 +12°C° 0 mm 5 m/S 740 mmHg 89%
09:00 +13°C° 0.1 mm 5 m/S 741 mmHg 86%
10:00 +13°C° 0.1 mm 6 m/S 742 mmHg 82%
11:00 +13°C° 0.1 mm 6 m/S 742 mmHg 79%
12:00 +14°C° 0 mm 6 m/S 742 mmHg 74%
13:00 +15°C° 0 mm 6 m/S 743 mmHg 70%
14:00 +16°C° 0 mm 5 m/S 743 mmHg 66%
15:00 +17°C° 0.1 mm 5 m/S 743 mmHg 67%
16:00 +18°C° 0.1 mm 4 m/S 743 mmHg 68%
17:00 +18°C° 0.1 mm 3 m/S 743 mmHg 68%
18:00 +17°C° 0 mm 3 m/S 743 mmHg 72%
19:00 +16°C° 0 mm 2 m/S 744 mmHg 77%
20:00 +14°C° 0 mm 2 m/S 744 mmHg 81%
21:00 +14°C° 0.1 mm 2 m/S 744 mmHg 83%
22:00 +14°C° 0.1 mm 2 m/S 744 mmHg 85%
23:00 +14°C° 0.1 mm 2 m/S 744 mmHg 88%

21 Mai, Freitag

Zeit Temperatur Niederschläge Wind Luftdruck Luftfeuchtigkeit
00:00 +13°C° 0.7 mm 2 m/S 744 mmHg 90%
01:00 +13°C° 0.7 mm 2 m/S 745 mmHg 93%
02:00 +13°C° 0.7 mm 2 m/S 745 mmHg 96%
03:00 +13°C° 0 mm 2 m/S 745 mmHg 95%
04:00 +12°C° 0 mm 3 m/S 745 mmHg 95%
05:00 +11°C° 0 mm 4 m/S 745 mmHg 94%
06:00 +12°C° 0.2 mm 4 m/S 745 mmHg 92%
07:00 +13°C° 0.2 mm 4 m/S 745 mmHg 90%
08:00 +13°C° 0.2 mm 4 m/S 745 mmHg 88%
09:00 +15°C° 0.1 mm 5 m/S 745 mmHg 84%
10:00 +16°C° 0.1 mm 5 m/S 745 mmHg 79%
11:00 +17°C° 0.1 mm 5 m/S 744 mmHg 75%
12:00 +19°C° 0 mm 5 m/S 744 mmHg 73%
13:00 +19°C° 0 mm 4 m/S 744 mmHg 72%
14:00 +20°C° 0 mm 4 m/S 744 mmHg 71%
15:00 +20°C° 0.2 mm 4 m/S 744 mmHg 75%
16:00 +19°C° 0.2 mm 4 m/S 744 mmHg 79%
17:00 +19°C° 0.2 mm 4 m/S 743 mmHg 82%
18:00 +18°C° 0.4 mm 4 m/S 743 mmHg 86%
19:00 +17°C° 0.4 mm 4 m/S 743 mmHg 90%
20:00 +15°C° 0.4 mm 4 m/S 743 mmHg 94%
21:00 +15°C° 0.3 mm 4 m/S 743 mmHg 95%
22:00 +14°C° 0.3 mm 4 m/S 743 mmHg 96%
23:00 +13°C° 0.3 mm 4 m/S 743 mmHg 97%

22 Mai, Samstag

Zeit Temperatur Niederschläge Wind Luftdruck Luftfeuchtigkeit
00:00 +13°C° 0 mm 4 m/S 743 mmHg 97%
01:00 +13°C° 0 mm 4 m/S 743 mmHg 97%
02:00 +13°C° 0 mm 4 m/S 743 mmHg 98%
03:00 +13°C° 0 mm 4 m/S 743 mmHg 97%
04:00 +13°C° 0 mm 4 m/S 743 mmHg 97%
05:00 +13°C° 0 mm 4 m/S 744 mmHg 97%
06:00 +14°C° 0 mm 4 m/S 744 mmHg 94%
07:00 +15°C° 0 mm 4 m/S 744 mmHg 92%
08:00 +16°C° 0 mm 5 m/S 744 mmHg 89%
09:00 +18°C° 0 mm 4 m/S 744 mmHg 85%
10:00 +19°C° 0 mm 4 m/S 744 mmHg 81%
11:00 +20°C° 0 mm 4 m/S 744 mmHg 77%
12:00 +21°C° 0 mm 4 m/S 745 mmHg 74%
13:00 +22°C° 0 mm 3 m/S 745 mmHg 72%
14:00 +22°C° 0 mm 3 m/S 745 mmHg 69%
15:00 +22°C° 0 mm 4 m/S 745 mmHg 73%
16:00 +21°C° 0 mm 4 m/S 745 mmHg 76%
17:00 +20°C° 0 mm 5 m/S 745 mmHg 80%
18:00 +19°C° 0 mm 4 m/S 745 mmHg 84%
19:00 +18°C° 0 mm 4 m/S 745 mmHg 88%
20:00 +17°C° 0 mm 4 m/S 745 mmHg 92%
21:00 +17°C° 0 mm 3 m/S 745 mmHg 93%
22:00 +16°C° 0 mm 3 m/S 745 mmHg 94%
23:00 +16°C° 0 mm 3 m/S 745 mmHg 95%

23 Mai, Sonntag

Zeit Temperatur Niederschläge Wind Luftdruck Luftfeuchtigkeit
00:00 +14°C° 0 mm 3 m/S 745 mmHg 96%
01:00 +14°C° 0 mm 3 m/S 745 mmHg 96%
02:00 +14°C° 0 mm 3 m/S 745 mmHg 96%
03:00 +15°C° 0 mm 2 m/S 745 mmHg 96%
04:00 +16°C° 0 mm 2 m/S 745 mmHg 96%
05:00 +16°C° 0 mm 2 m/S 745 mmHg 95%
06:00 +18°C° 0 mm 2 m/S 745 mmHg 90%
07:00 +19°C° 0 mm 2 m/S 745 mmHg 85%
08:00 +21°C° 0 mm 3 m/S 745 mmHg 80%
09:00 +22°C° 0 mm 3 m/S 745 mmHg 76%
10:00 +24°C° 0 mm 2 m/S 745 mmHg 72%
11:00 +26°C° 0 mm 2 m/S 745 mmHg 67%
12:00 +26°C° 0 mm 2 m/S 745 mmHg 65%
13:00 +26°C° 0 mm 2 m/S 745 mmHg 63%
14:00 +26°C° 0 mm 3 m/S 745 mmHg 61%
15:00 +26°C° 0 mm 3 m/S 745 mmHg 64%
16:00 +25°C° 0 mm 3 m/S 745 mmHg 67%
17:00 +25°C° 0 mm 4 m/S 745 mmHg 69%
18:00 +22°C° 0 mm 3 m/S 745 mmHg 74%
19:00 +20°C° 0 mm 3 m/S 745 mmHg 79%
20:00 +18°C° 0 mm 3 m/S 745 mmHg 83%
21:00 +17°C° 0 mm 3 m/S 745 mmHg 85%
22:00 +16°C° 0 mm 3 m/S 745 mmHg 87%
23:00 +16°C° 0 mm 3 m/S 745 mmHg 88%
Mehr zeigen

Wir brauchen deine Erlaubnis

Meteoprog und unser Service Anbieter werden persönliche Daten aufbewahren, so wie Cookies, Geräte Bezeichnung oder ähnliche Technologien von deinem Gerät und Prozess, so wie Persönliche Daten Inhalte und Werbungen, genauso wie social Media und den Verkehr zu analysieren.

  • Aufbewahrung und/oder Zugang zu deiner Geräte Informationen.

    Cookies, Geräte Bezeichnung oder andere Informationen, können aufbewahrt oder Zugang zu deinem Gerät erhalten, für den Grund, der oben angegeben wird.

  • Personalisierte Werbung und Inhalte, Messungen, Einblick in das Publikum und Produkt Entwicklung.

    Werbungen und Inhalte können personalisiert werden, basierend auf ein Profil. Mehr Daten können besser personalisierte Werbungen und Inhalte hinzufügen. Werbung und Inhalte können gezeigt und gemessen werden. Einblicke über das Publikum, welche die Werbung gesehen haben und den Inhalt, können abgeleitet werden. So wie Daten können genutzt werden, um es zu verbessern oder die Benutzer Erfahrung zu verbessern das System und die Software.

Wenn du “Ich stimme zu” klickst, erlaubst du uns, die Cookies zu benutzen die Geräte Bezeichnung, den Web oder ähnliche Technologien zu benutzen. Deine Settings, können in deinem Gerät bei deinem Browser geändert werden.

Für den bestimmten Zweck, berechtigten Interessen beruhen darauf, mehr als auf den Inhalt. Du kannst mehr darüber in unseren Privaten und Cookie Politik lesen.